Year,Month,Day,Hour,Minute,Value (Times are PST for temperature in C)
2013,03,19,10,06,4.00
2013,03,19,10,07,4.10
2013,03,19,10,08,4.10
2013,03,19,10,09,4.10
2013,03,19,10,10,4.10
2013,03,19,10,11,4.10
2013,03,19,10,12,4.00
2013,03,19,10,13,4.00
2013,03,19,10,14,4.00
2013,03,19,10,15,4.00
2013,03,19,10,16,4.10
2013,03,19,10,17,4.10
2013,03,19,10,18,4.10
2013,03,19,10,19,4.10
2013,03,19,10,20,4.20
2013,03,19,10,21,4.20
2013,03,19,10,22,4.10
2013,03,19,10,23,4.10
2013,03,19,10,24,4.20
2013,03,19,10,25,4.20
2013,03,19,10,26,4.20
2013,03,19,10,27,4.20
2013,03,19,10,28,4.20
2013,03,19,10,29,4.20
2013,03,19,10,30,4.20
2013,03,19,10,31,4.20
2013,03,19,10,32,4.20
2013,03,19,10,33,4.20
2013,03,19,10,34,4.20
2013,03,19,10,35,4.20
2013,03,19,10,36,4.20
2013,03,19,10,37,4.20
2013,03,19,10,38,4.20
2013,03,19,10,39,4.20
2013,03,19,10,40,4.20
2013,03,19,10,41,4.20
2013,03,19,10,42,4.20
2013,03,19,10,43,4.20
2013,03,19,10,44,4.20
2013,03,19,10,45,4.20
2013,03,19,10,46,4.20
2013,03,19,10,47,4.20
2013,03,19,10,48,4.20
2013,03,19,10,49,4.20
2013,03,19,10,50,4.20
2013,03,19,10,51,4.10
2013,03,19,10,52,4.10
2013,03,19,10,53,4.20
2013,03,19,10,54,4.20
2013,03,19,10,55,4.20
2013,03,19,10,56,4.20
2013,03,19,10,57,4.30
2013,03,19,10,58,4.30
2013,03,19,10,59,4.30
2013,03,19,11,00,4.30
2013,03,19,11,01,4.30
2013,03,19,11,02,4.30
2013,03,19,11,03,4.20
2013,03,19,11,04,4.20
2013,03,19,11,05,4.20
2013,03,19,11,06,4.20
2013,03,19,11,07,4.20
2013,03,19,11,08,4.20
2013,03,19,11,09,4.20
2013,03,19,11,10,4.20
2013,03,19,11,11,4.20
2013,03,19,11,12,4.20
2013,03,19,11,13,4.20
2013,03,19,11,14,4.30
2013,03,19,11,15,4.40
2013,03,19,11,16,4.40
2013,03,19,11,17,4.30
2013,03,19,11,18,4.20
2013,03,19,11,19,4.20
2013,03,19,11,20,4.20
2013,03,19,11,21,4.20
2013,03,19,11,22,4.20
2013,03,19,11,23,4.20
2013,03,19,11,24,4.20
2013,03,19,11,25,4.20
2013,03,19,11,26,4.30
2013,03,19,11,27,4.30
2013,03,19,11,28,4.30
2013,03,19,11,29,4.40
2013,03,19,11,30,4.40
2013,03,19,11,31,4.40
2013,03,19,11,32,4.40
2013,03,19,11,33,4.50
2013,03,19,11,34,4.50
2013,03,19,11,35,4.50
2013,03,19,11,36,4.50
2013,03,19,11,37,4.60
2013,03,19,11,38,4.60
2013,03,19,11,39,4.70
2013,03,19,11,40,4.70
2013,03,19,11,41,4.80
2013,03,19,11,42,4.80
2013,03,19,11,43,4.80
2013,03,19,11,44,4.80
2013,03,19,11,45,4.80
2013,03,19,11,46,4.70
2013,03,19,11,47,4.70
2013,03,19,11,48,4.70
2013,03,19,11,49,4.70
2013,03,19,11,50,4.70
2013,03,19,11,51,4.70
2013,03,19,11,52,4.70
2013,03,19,11,53,4.70
2013,03,19,11,54,4.70
2013,03,19,11,55,4.80
2013,03,19,11,56,4.80
2013,03,19,11,57,4.80
2013,03,19,11,58,4.80
2013,03,19,11,59,4.90
2013,03,19,12,00,4.90
2013,03,19,12,01,4.90
2013,03,19,12,02,5.00
2013,03,19,12,03,5.10
2013,03,19,12,04,5.10
2013,03,19,12,05,5.10
2013,03,19,12,06,5.20
2013,03,19,12,07,5.20
2013,03,19,12,08,5.20
2013,03,19,12,09,5.30
2013,03,19,12,10,5.30
2013,03,19,12,11,5.20
2013,03,19,12,12,5.10
2013,03,19,12,13,5.10
2013,03,19,12,14,5.10
2013,03,19,12,15,5.10
2013,03,19,12,16,5.10
2013,03,19,12,17,5.10
2013,03,19,12,18,5.10
2013,03,19,12,19,5.10
2013,03,19,12,20,5.10
2013,03,19,12,21,5.10
2013,03,19,12,22,5.10
2013,03,19,12,23,5.10
2013,03,19,12,24,5.10
2013,03,19,12,25,5.10
2013,03,19,12,26,5.10
2013,03,19,12,27,5.10
2013,03,19,12,28,5.10
2013,03,19,12,29,5.10
2013,03,19,12,30,5.10
2013,03,19,12,31,5.10
2013,03,19,12,32,5.10
2013,03,19,12,33,5.10
2013,03,19,12,34,5.10
2013,03,19,12,35,5.10
2013,03,19,12,36,5.10
2013,03,19,12,37,5.10
2013,03,19,12,38,5.10
2013,03,19,12,39,5.10
2013,03,19,12,40,5.10
2013,03,19,12,41,5.10
2013,03,19,12,42,5.10
2013,03,19,12,43,5.10
2013,03,19,12,44,5.20
2013,03,19,12,45,5.20
2013,03,19,12,46,5.20
2013,03,19,12,47,5.30
2013,03,19,12,48,5.30
2013,03,19,12,49,5.30
2013,03,19,12,50,5.30
2013,03,19,12,51,5.40
2013,03,19,12,52,5.40
2013,03,19,12,53,5.40
2013,03,19,12,54,5.50
2013,03,19,12,55,5.50
2013,03,19,12,56,5.50
2013,03,19,12,57,5.50
2013,03,19,12,58,5.50
2013,03,19,12,59,5.50
2013,03,19,13,00,5.50
2013,03,19,13,01,5.50
2013,03,19,13,02,5.50
2013,03,19,13,03,5.60
2013,03,19,13,04,5.60
2013,03,19,13,05,5.70
2013,03,19,13,06,5.70
2013,03,19,13,07,5.70
2013,03,19,13,08,5.70
2013,03,19,13,09,5.70
2013,03,19,13,10,5.70
2013,03,19,13,11,5.70
2013,03,19,13,12,5.70
2013,03,19,13,13,5.70
2013,03,19,13,14,5.80
2013,03,19,13,15,5.80
2013,03,19,13,16,5.80
2013,03,19,13,17,5.80
2013,03,19,13,18,5.90
2013,03,19,13,19,5.80
2013,03,19,13,20,5.80
2013,03,19,13,21,5.90
2013,03,19,13,22,5.90
2013,03,19,13,23,5.90
2013,03,19,13,24,5.90
2013,03,19,13,25,5.80
2013,03,19,13,26,5.80
2013,03,19,13,27,5.80
2013,03,19,13,28,5.80
2013,03,19,13,29,5.80
2013,03,19,13,30,5.90
2013,03,19,13,31,5.90
2013,03,19,13,32,5.80
2013,03,19,13,33,5.80
2013,03,19,13,34,5.80
2013,03,19,13,35,5.70
2013,03,19,13,36,5.70
2013,03,19,13,37,5.70
2013,03,19,13,38,5.70
2013,03,19,13,39,5.70
2013,03,19,13,40,5.70
2013,03,19,13,41,5.70
2013,03,19,13,42,5.70
2013,03,19,13,43,5.60
2013,03,19,13,44,5.60
2013,03,19,13,45,5.60
2013,03,19,13,46,5.60
2013,03,19,13,47,5.60
2013,03,19,13,48,5.60
2013,03,19,13,49,5.60
2013,03,19,13,50,5.60
2013,03,19,13,51,5.60
2013,03,19,13,52,5.50
2013,03,19,13,53,5.50
2013,03,19,13,54,5.50
2013,03,19,13,55,5.50
2013,03,19,13,56,5.60
2013,03,19,13,57,5.60
2013,03,19,13,58,5.60
2013,03,19,13,59,5.50
2013,03,19,14,00,5.40
2013,03,19,14,01,5.30
2013,03,19,14,02,5.30
2013,03,19,14,03,5.30
2013,03,19,14,04,5.30
2013,03,19,14,05,5.30
2013,03,19,14,06,5.30
2013,03,19,14,07,5.30
2013,03,19,14,08,5.30
2013,03,19,14,09,5.30
2013,03,19,14,10,5.30
2013,03,19,14,11,5.30
2013,03,19,14,12,5.40
2013,03,19,14,13,5.40
2013,03,19,14,14,5.40
2013,03,19,14,15,5.40
2013,03,19,14,16,5.40
2013,03,19,14,17,5.40
2013,03,19,14,18,5.40
2013,03,19,14,19,5.40
2013,03,19,14,20,5.40
2013,03,19,14,21,5.40
2013,03,19,14,22,5.40
2013,03,19,14,23,5.40
2013,03,19,14,24,5.40
2013,03,19,14,25,5.40
2013,03,19,14,26,5.50
2013,03,19,14,27,5.50
2013,03,19,14,28,5.50
2013,03,19,14,29,5.50
2013,03,19,14,30,5.40
2013,03,19,14,31,5.40
2013,03,19,14,32,5.40
2013,03,19,14,33,5.40
2013,03,19,14,34,5.30
2013,03,19,14,35,5.30
2013,03,19,14,36,5.30
2013,03,19,14,37,5.30
2013,03,19,14,38,5.30
2013,03,19,14,39,5.30
2013,03,19,14,40,5.30
2013,03,19,14,41,5.30
2013,03,19,14,42,5.40
2013,03,19,14,43,5.40
2013,03,19,14,44,5.40
2013,03,19,14,45,5.50
2013,03,19,14,46,5.50
2013,03,19,14,47,5.50
2013,03,19,14,48,5.50
2013,03,19,14,49,5.50
2013,03,19,14,50,5.50
2013,03,19,14,51,5.50
2013,03,19,14,52,5.40
2013,03,19,14,53,5.40
2013,03,19,14,54,5.40
2013,03,19,14,55,5.40
2013,03,19,14,56,5.40
2013,03,19,14,57,5.40
2013,03,19,14,58,5.40
2013,03,19,14,59,5.40
2013,03,19,15,00,5.40
2013,03,19,15,01,5.40
2013,03,19,15,02,5.40
2013,03,19,15,03,5.40
2013,03,19,15,04,5.40
2013,03,19,15,05,5.40
2013,03,19,15,06,5.40
2013,03,19,15,07,5.40
2013,03,19,15,08,5.40
2013,03,19,15,09,5.40
2013,03,19,15,10,5.40
2013,03,19,15,11,5.50
2013,03,19,15,12,5.50
2013,03,19,15,13,5.50
2013,03,19,15,14,5.60
2013,03,19,15,15,5.60
2013,03,19,15,16,5.60
2013,03,19,15,17,5.60
2013,03,19,15,18,5.70
2013,03,19,15,19,5.70
2013,03,19,15,20,5.70
2013,03,19,15,21,5.70
2013,03,19,15,22,5.70
2013,03,19,15,23,5.70
2013,03,19,15,24,5.70
2013,03,19,15,25,5.70
2013,03,19,15,26,5.70
2013,03,19,15,27,5.80
2013,03,19,15,28,5.80
2013,03,19,15,29,5.80
2013,03,19,15,30,5.80
2013,03,19,15,31,5.80
2013,03,19,15,32,5.80
2013,03,19,15,33,5.80
2013,03,19,15,34,5.80
2013,03,19,15,35,5.80
2013,03,19,15,36,5.80
2013,03,19,15,37,5.80
2013,03,19,15,38,5.90
2013,03,19,15,39,5.90
2013,03,19,15,40,6.00
2013,03,19,15,41,6.00
2013,03,19,15,42,6.00
2013,03,19,15,43,6.00
2013,03,19,15,44,6.00
2013,03,19,15,45,6.10
2013,03,19,15,46,6.10
2013,03,19,15,47,6.20
2013,03,19,15,48,6.20
2013,03,19,15,49,6.20
2013,03,19,15,50,6.20
2013,03,19,15,51,6.20
2013,03,19,15,52,6.20
2013,03,19,15,53,6.20
2013,03,19,15,54,6.20
2013,03,19,15,55,6.20
2013,03,19,15,56,6.20
2013,03,19,15,57,6.20
2013,03,19,15,58,6.20
2013,03,19,15,59,6.20
2013,03,19,16,00,6.20
2013,03,19,16,01,6.20
2013,03,19,16,02,6.20
2013,03,19,16,03,6.20
2013,03,19,16,04,6.20
2013,03,19,16,05,6.20
2013,03,19,16,06,6.20
2013,03,19,16,07,6.20
2013,03,19,16,08,6.20
2013,03,19,16,09,6.20
2013,03,19,16,10,6.20
2013,03,19,16,11,6.10
2013,03,19,16,12,6.10
2013,03,19,16,13,6.10
2013,03,19,16,14,6.10
2013,03,19,16,15,6.10
2013,03,19,16,16,6.10
2013,03,19,16,17,6.10
2013,03,19,16,18,6.10
2013,03,19,16,19,6.10
2013,03,19,16,20,6.10
2013,03,19,16,21,6.10
2013,03,19,16,22,6.10
2013,03,19,16,23,6.10
2013,03,19,16,24,6.10
2013,03,19,16,25,6.10
2013,03,19,16,26,6.10
2013,03,19,16,27,6.10
2013,03,19,16,28,6.10
2013,03,19,16,29,6.10
2013,03,19,16,30,6.10
